N1OTX Weather Reports


Display with metric or nautical units.
time (UTC)temp
F
wind
direction
speed
MPH
gust
MPH
rain 1hr
in
rain 24hr
in
rain mn
in
humidity
%
barometer
mb
20260505011029 61 235 2.0 9.0 0.00 0.00 0.00 45 1009.7
20260505010531 61 233 2.0 9.0 0.00 0.00 0.00 45 1009.6
20260505010031 62 240 1.0 9.0 0.00 0.00 0.00 45 1009.6
20260505005531 62 238 3.0 9.0 0.00 0.00 0.00 44 1009.3
20260505005030 62 223 3.0 16.0 0.00 0.00 0.00 44 1009.4
20260505004530 62 186 2.0 10.0 0.00 0.00 0.00 44 1009.2
20260505004030 62 207 2.0 10.0 0.00 0.00 0.00 44 1009.1
20260505003530 62 245 3.0 8.0 0.00 0.00 0.00 44 1009.0
20260505003030 63 234 2.0 10.0 0.00 0.00 0.00 43 1008.8
20260505002550 63 200 2.0 13.0 0.00 0.00 0.00 43 1008.6
20260505002030 63 230 3.0 14.0 0.00 0.00 0.00 42 1008.6
20260505001530 63 245 2.0 8.0 0.00 0.00 0.00 42 1008.5
20260505001029 63 212 3.0 9.0 0.00 0.00 0.00 42 1008.4
20260505000529 63 206 3.0 14.0 0.00 0.00 0.00 42 1008.2
20260505000029 64 255 3.0 14.0 0.00 0.00 0.00 41 1008.2
20260504235529 64 239 3.0 18.0 0.00 0.00 0.00 41 1008.0
20260504235051 64 192 2.0 18.0 0.00 0.00 0.00 41 1008.0
20260504234531 65 226 3.0 21.0 0.00 0.00 0.00 40 1007.9
20260504234031 65 236 3.0 9.0 0.00 0.00 0.00 40 1007.9
20260504233530 65 238 3.0 7.0 0.00 0.00 0.00 39 1007.7
20260504233031 66 206 3.0 10.0 0.00 0.00 0.00 38 1007.7
20260504232530 66 228 2.0 13.0 0.00 0.00 0.00 38 1007.5
20260504232050 66 240 3.0 13.0 0.00 0.00 0.00 37 1007.5
20260504231530 66 278 2.0 8.0 0.00 0.00 0.00 37 1007.4
20260504231030 67 258 3.0 11.0 0.00 0.00 0.00 36 1007.3
20260504230530 67 215 3.0 11.0 0.00 0.00 0.00 36 1007.1
20260504230029 67 241 3.0 11.0 0.00 0.00 0.00 35 1007.0
20260504225529 68 221 2.0 9.0 0.00 0.00 0.00 35 1006.9
20260504225029 68 225 2.0 13.0 0.00 0.00 0.00 34 1006.7
20260504224529 69 207 3.0 11.0 0.00 0.00 0.00 33 1006.7
20260504224031 69 252 4.0 11.0 0.00 0.00 0.00 31 1006.7
20260504223531 69 263 2.0 8.0 0.00 0.00 0.00 30 1006.6
20260504223030 70 224 2.0 9.0 0.00 0.00 0.00 30 1006.5
20260504222531 70 237 2.0 9.0 0.00 0.00 0.00 30 1006.5
20260504222030 70 228 2.0 9.0 0.00 0.00 0.00 29 1006.5
20260504221531 70 219 2.0 10.0 0.00 0.00 0.00 30 1006.6
20260504221030 70 257 2.0 6.0 0.00 0.00 0.00 29 1006.5
20260504220530 70 253 2.0 6.0 0.00 0.00 0.00 29 1006.5
20260504220030 70 229 2.0 14.0 0.00 0.00 0.00 29 1006.5
20260504215550 70 298 2.0 4.0 0.00 0.00 0.00 30 1006.6
20260504215030 70 250 2.0 4.0 0.00 0.00 0.00 30 1006.6
20260504214610 71 242 1.0 7.0 0.00 0.00 0.00 29 1006.4
20260504214029 71 199 2.0 6.0 0.00 0.00 0.00 29 1006.6
20260504213529 71 183 1.0 4.0 0.00 0.00 0.00 28 1006.6
20260504213029 71 261 2.0 4.0 0.00 0.00 0.00 29 1006.7
20260504212551 71 280 2.0 10.0 0.00 0.00 0.00 28 1006.6
20260504212030 71 133 2.0 6.0 0.00 0.00 0.00 29 1006.5
20260504211531 71 322 1.0 4.0 0.00 0.00 0.00 28 1006.5
20260504211030 71 236 2.0 6.0 0.00 0.00 0.00 28 1006.6
20260504210530 71 316 2.0 7.0 0.00 0.00 0.00 27 1006.6
20260504210030 71 219 3.0 8.0 0.00 0.00 0.00 29 1006.7
20260504205530 71 19 3.0 13.0 0.00 0.00 0.00 28 1006.6
20260504205030 71 288 3.0 9.0 0.00 0.00 0.00 28 1006.5
20260504204530 71 139 2.0 10.0 0.00 0.00 0.00 28 1006.6
20260504204030 72 250 1.0 8.0 0.00 0.00 0.00 27 1006.6
20260504203529 72 206 2.0 10.0 0.00 0.00 0.00 28 1006.5
20260504203029 72 217 1.0 6.0 0.00 0.00 0.00 28 1006.6
20260504202530 71 211 1.0 13.0 0.00 0.00 0.00 28 1006.6
20260504202030 71 250 2.0 13.0 0.00 0.00 0.00 26 1006.7
20260504201530 72 341 3.0 16.0 0.00 0.00 0.00 26 1006.8
20260504201110 72 181 4.0 16.0 0.00 0.00 0.00 26 1006.7
20260504200550 72 324 2.0 10.0 0.00 0.00 0.00 26 1006.8
20260504200029 72 290 3.0 10.0 0.00 0.00 0.00 28 1006.8
20260504195529 72 267 2.0 7.0 0.00 0.00 0.00 27 1006.7
20260504195029 72 278 2.0 7.0 0.00 0.00 0.00 27 1006.7
20260504194529 72 250 2.0 7.0 0.00 0.00 0.00 26 1006.9
20260504194029 72 285 3.0 8.0 0.00 0.00 0.00 26 1006.9
20260504193549 72 359 3.0 7.0 0.00 0.00 0.00 27 1006.8
20260504193030 72 268 3.0 8.0 0.00 0.00 0.00 26 1006.8
20260504192530 72 294 3.0 10.0 0.00 0.00 0.00 25 1006.8
20260504192050 72 263 3.0 10.0 0.00 0.00 0.00 26 1006.7
20260504191530 72 245 2.0 11.0 0.00 0.00 0.00 26 1006.9
20260504191029 72 332 2.0 11.0 0.00 0.00 0.00 26 1006.9
20260504190529 72 277 2.0 7.0 0.00 0.00 0.00 27 1007.0
20260504190032 72 210 3.0 9.0 0.00 0.00 0.00 26 1007.0
20260504185530 72 260 3.0 7.0 0.00 0.00 0.00 26 1007.2
20260504185110 72 308 2.0 13.0 0.00 0.00 0.00 27 1007.1
20260504184529 71 316 3.0 13.0 0.00 0.00 0.00 27 1007.1
20260504184029 72 21 3.0 10.0 0.00 0.00 0.00 26 1007.2
20260504183529 72 263 3.0 11.0 0.00 0.00 0.00 27 1007.2
20260504183049 71 215 3.0 11.0 0.00 0.00 0.00 28 1007.2
20260504182530 71 240 4.0 11.0 0.00 0.00 0.00 27 1007.3
20260504182050 71 287 3.0 9.0 0.00 0.00 0.00 28 1007.3
20260504181534 71 266 4.0 10.0 0.00 0.00 0.00 27 1007.4
20260504181029 71 264 3.0 15.0 0.00 0.00 0.00 29 1007.3
20260504180529 71 221 4.0 15.0 0.00 0.00 0.00 28 1007.4
20260504180029 71 253 3.0 13.0 0.00 0.00 0.00 28 1007.3
20260504175530 71 188 2.0 11.0 0.00 0.00 0.00 29 1007.4
20260504175029 71 242 3.0 6.0 0.00 0.00 0.00 28 1007.5
20260504174531 70 239 3.0 8.0 0.00 0.00 0.00 28 1007.7
20260504174031 71 318 3.0 8.0 0.00 0.00 0.00 28 1007.7
20260504173611 70 205 2.0 8.0 0.00 0.00 0.00 28 1007.6
20260504173030 70 226 3.0 8.0 0.00 0.00 0.00 30 1007.7
20260504172531 71 262 3.0 11.0 0.00 0.00 0.00 28 1007.9
20260504172030 70 250 3.0 11.0 0.00 0.00 0.00 29 1007.6
20260504171610 70 216 3.0 9.0 0.00 0.00 0.00 29 1007.7
20260504171030 70 20 2.0 13.0 0.00 0.00 0.00 28 1007.6
20260504170530 69 223 4.0 13.0 0.00 0.00 0.00 29 1007.7
20260504151030 68 315 2.0 8.0 0.00 0.00 0.00 33 1008.9
20260504150529 67 211 2.0 8.0 0.00 0.00 0.00 33 1009.0
20260504141030 64 302 2.0 6.0 0.00 0.00 0.00 38 1009.5
20260504140529 63 313 2.0 4.0 0.00 0.00 0.00 37 1009.6
20260504130530 60 239 1.0 4.0 0.00 0.00 0.00 40 1010.4
20260504110530 50 218 1.0 4.0 0.00 0.00 0.00 50 1010.7
20260504100530 44 0.0 0.0 0.00 0.00 0.00 71 1010.6
20260504081531 44 0.0 0.0 0.00 0.00 0.00 71 1010.4
20260504081030 44 0.0 0.0 0.00 0.00 0.00 70 1010.5
20260504080530 44 0.0 0.0 0.00 0.00 0.00 72 1010.5
20260504070111 43 0.0 0.0 0.00 0.00 0.00 69 1010.4
20260504050530 36 0.0 0.0 0.00 0.00 0.00 78 1010.4
20260504045531 36 0.0 0.0 0.00 0.00 0.00 78 1010.4
20260504045051 36 0.0 0.0 0.00 0.00 0.00 78 1010.5
20260504044531 36 0.0 0.0 0.00 0.00 0.00 80 1010.5
20260504044030 35 0.0 0.0 0.00 0.00 0.00 82 1010.4
20260504043530 35 0.0 0.0 0.00 0.00 0.00 83 1010.4
20260504043030 35 0.0 0.0 0.00 0.00 0.00 83 1010.3
20260504042530 35 0.0 0.0 0.00 0.00 0.00 82 1010.5
20260504042052 35 0.0 0.0 0.00 0.00 0.00 82 1010.4
20260504041530 35 0.0 0.0 0.00 0.00 0.00 82 1010.3
20260504041030 35 0.0 0.0 0.00 0.00 0.00 83 1010.3
20260504040530 35 0.0 0.0 0.00 0.00 0.00 83 1010.2
20260504040030 35 0.0 0.0 0.00 0.00 0.00 83 1010.3
20260504035531 35 0.0 0.0 0.00 0.00 0.00 82 1010.2
20260504035031 35 0.0 0.0 0.00 0.00 0.00 83 1010.2
20260504034531 35 0.0 0.0 0.00 0.00 0.00 84 1010.0
20260504034030 35 0.0 0.0 0.00 0.00 0.00 82 1010.0
20260504033530 35 0.0 0.0 0.00 0.00 0.00 82 1010.1
20260504033051 36 0.0 0.0 0.00 0.00 0.00 82 1010.0
20260504032530 36 0.0 0.0 0.00 0.00 0.00 83 1010.0
20260504032030 36 0.0 0.0 0.00 0.00 0.00 84 1010.2
20260504031530 36 0.0 0.0 0.00 0.00 0.00 84 1010.1
20260504031029 36 0.0 0.0 0.00 0.00 0.00 84 1010.1
20260504030529 36 0.0 0.0 0.00 0.00 0.00 82 1010.0
20260504030029 36 0.0 0.0 0.00 0.00 0.00 82 1010.0
20260504025552 36 0.0 0.0 0.00 0.00 0.00 81 1010.0
20260504025051 36 0.0 0.0 0.00 0.00 0.00 81 1009.9
20260504024531 37 0.0 0.0 0.00 0.00 0.00 82 1009.9
20260504024035 37 0.0 0.0 0.00 0.00 0.00 80 1009.9
20260504023530 37 0.0 0.0 0.00 0.00 0.00 80 1010.0
20260504023030 37 0.0 0.0 0.00 0.00 0.00 80 1009.8
20260504022550 37 0.0 0.0 0.00 0.00 0.00 78 1009.8
20260504022030 38 0.0 0.0 0.00 0.00 0.00 77 1009.7
20260504021530 38 0.0 0.0 0.00 0.00 0.00 76 1009.9
20260504021029 38 0.0 0.0 0.00 0.00 0.00 76 1009.8
20260504020529 38 0.0 0.0 0.00 0.00 0.00 75 1009.9
20260504020034 39 0.0 0.0 0.00 0.00 0.00 74 1009.7
20260504015529 39 0.0 0.0 0.00 0.00 0.00 74 1009.7
20260504015031 39 0.0 0.0 0.00 0.00 0.00 72 1009.7
20260504014531 39 0.0 0.0 0.00 0.00 0.00 70 1009.6
20260504014031 40 0.0 0.0 0.00 0.00 0.00 71 1009.5
20260504013531 40 0.0 0.0 0.00 0.00 0.00 70 1009.6
20260504013030 40 0.0 0.0 0.00 0.00 0.00 66 1009.6
20260504012530 41 0.0 0.0 0.00 0.00 0.00 67 1009.6
20260504012050 41 0.0 0.0 0.00 0.00 0.00 67 1009.5
20260504011530 41 0.0 0.0 0.00 0.00 0.00 66 1009.4